Temp
12 12 12 11 13 13 14 15 16 15 15 15 15 14 14 14 14 14 14 14 14 13 13 13 12 12 12 12 12 12 12 12
11 10 10 10 11 13 14 15 15 15 14 14 14 14 14 14 13 13 13 13 13 13 13 13 13 12 12 12 12 11 11 11
11 11 12 11 12 13 14 14 14 14 14 14 13 14 14 13 13 13 13 13 13 12 13 12 12 12 11 11 11 11 10 10
11 11 11 11 13 13 14 14 13 13 13 13 13 13 13 13 13 13 13 13 12 12 12 12 12 11 11 11 11 10 10 10
12 12 12 12 13 13 13 13 12 12 12 12 13 13 13 13 13 13 12 12 12 12 11 11 11 11 11 11 10 10 9 9
12 12 13 12 13 13 13 12 12 12 12 13 13 13 13 13 12 12 12 12 11 11 11 11 11 11 10 10 10 9 9 8
13 13 13 12 13 13 12 12 12 12 13 13 13 13 13 12 12 12 11 11 11 11 11 11 10 10 9 9 9 9 8 8
13 13 13 13 12 12 12 12 12 12 13 13 13 12 12 12 12 12 11 11 11 11 10 10 10 9 8 8 7 7 7 7
13 13 13 12 12 12 12 12 13 13 13 12 11 11 12 11 11 11 11 11 11 11 10 9 9 8 8 7 7 6 6 6
13 13 13 12 12 12 12 12 12 12 13 12 12 12 11 11 11 11 11 11 11 10 9 8 8 7 7 6 5 5 5 5
13 13 13 13 12 12 12 13 12 13 13 12 12 11 12 12 12 11 11 10 9 9 8 7 7 7 6 5 5 5 5 4
13 13 13 13 12 12 12 12 12 12 12 12 12 12 12 12 11 11 10 10 10 9 9 8 7 7 6 5 4 4 4 4
13 13 13 13 12 12 12 13 13 12 12 12 12 12 12 12 11 11 11 11 10 10 9 8 7 7 6 5 4 4 3 3
13 13 13 12 12 13 13 13 12 12 11 11 11 11 11 11 11 11 11 11 10 10 9 8 7 6 5 4 3 3 3 3
14 13 13 13 13 13 13 12 11 11 11 11 11 11 10 10 10 10 10 10 9 8 7 7 6 4 4 3 2 2 2 2
15 15 14 13 13 12 13 13 12 12 12 11 11 10 9 9 10 9 9 9 8 7 6 5 4 3 2 2 1 1 0 0
14 14 13 13 12 13 13 12 12 12 11 10 10 9 9 9 9 8 8 7 7 6 4 3 2 2 1 1 1 0 -0 -0
14 14 14 13 13 13 13 12 11 11 10 10 10 9 9 8 7 6 6 6 6 5 3 2 2 1 1 0 -0 -1 -1 -1
14 14 14 13 12 12 12 12 11 11 11 10 9 8 8 7 6 6 5 5 4 3 2 1 1 1 0 -0 -1 -1 -1 -2
14 14 14 13 12 12 12 12 11 10 10 9 8 8 7 6 6 4 3 3 3 2 1 1 -0 -0 -0 -1 -1 -1 -2 -2
Height
1520 1521 1522 1525 1537 1542 1543 1546 1551 1555 1557 1558 1560 1561 1563 1565 1568 1567 1566 1567 1568 1569 1570 1571 1571 1570 1569 1569 1569 1569 1568 1566
1527 1524 1524 1533 1539 1540 1546 1552 1554 1556 1558 1561 1562 1564 1566 1567 1568 1568 1568 1568 1568 1569 1571 1571 1571 1569 1570 1569 1569 1568 1567 1566
1527 1528 1533 1539 1543 1548 1552 1555 1557 1559 1560 1563 1564 1565 1565 1567 1568 1568 1568 1568 1570 1570 1571 1571 1570 1571 1571 1569 1568 1566 1565 1565
1531 1534 1540 1546 1552 1552 1553 1556 1559 1561 1562 1565 1567 1566 1568 1568 1570 1569 1569 1570 1570 1570 1571 1571 1571 1570 1570 1569 1568 1566 1565 1563
1538 1541 1545 1548 1551 1553 1555 1556 1560 1563 1563 1566 1567 1568 1569 1569 1569 1570 1571 1571 1571 1571 1572 1571 1571 1570 1571 1567 1567 1565 1564 1562
1539 1543 1546 1549 1551 1554 1558 1559 1561 1563 1564 1566 1568 1568 1569 1569 1570 1570 1573 1571 1571 1572 1571 1570 1570 1570 1569 1568 1565 1565 1563 1561
1539 1543 1546 1549 1552 1555 1557 1559 1562 1565 1564 1566 1567 1568 1568 1568 1570 1570 1572 1572 1571 1572 1571 1569 1569 1569 1568 1567 1564 1564 1559 1559
1540 1543 1546 1550 1552 1556 1557 1560 1563 1564 1565 1565 1567 1567 1569 1569 1569 1569 1571 1571 1572 1571 1571 1568 1568 1566 1567 1565 1563 1561 1558 1557
1540 1544 1546 1550 1553 1555 1558 1559 1562 1564 1565 1565 1566 1567 1568 1569 1568 1568 1569 1571 1570 1570 1568 1568 1567 1567 1564 1562 1561 1559 1557 1556
1543 1546 1547 1550 1552 1555 1557 1559 1561 1563 1564 1566 1566 1567 1567 1566 1567 1567 1569 1570 1568 1569 1567 1566 1566 1563 1563 1559 1558 1556 1555 1553
1542 1545 1547 1549 1552 1555 1557 1559 1561 1563 1562 1564 1564 1565 1565 1565 1566 1568 1568 1567 1565 1564 1563 1563 1563 1560 1558 1556 1555 1555 1554 1552
1540 1543 1546 1549 1552 1554 1557 1558 1560 1561 1561 1561 1563 1562 1564 1565 1565 1565 1565 1562 1562 1561 1561 1560 1559 1556 1555 1554 1553 1553 1552 1551
1540 1543 1545 1546 1549 1552 1554 1556 1557 1558 1559 1560 1561 1562 1563 1563 1563 1562 1561 1560 1559 1558 1558 1557 1554 1553 1552 1552 1552 1551 1550 1550
1537 1541 1543 1546 1549 1551 1554 1555 1556 1557 1557 1559 1560 1561 1561 1561 1560 1560 1559 1558 1557 1555 1554 1552 1551 1551 1550 1550 1550 1551 1549 1547
1533 1536 1539 1543 1546 1549 1551 1553 1554 1554 1555 1556 1558 1559 1559 1558 1557 1557 1556 1555 1554 1553 1552 1550 1549 1549 1549 1551 1549 1548 1547 1546
1528 1531 1535 1539 1542 1545 1547 1548 1550 1551 1553 1554 1555 1555 1556 1555 1554 1553 1552 1552 1554 1554 1551 1549 1548 1547 1548 1548 1548 1547 1545 1543
1528 1530 1533 1536 1539 1541 1544 1545 1548 1549 1550 1551 1552 1553 1553 1552 1552 1551 1550 1550 1550 1549 1549 1547 1547 1545 1544 1543 1544 1542 1541 1540
1525 1526 1529 1533 1536 1537 1538 1541 1543 1545 1546 1547 1548 1549 1549 1549 1548 1548 1548 1548 1549 1545 1544 1543 1543 1542 1541 1540 1539 1539 1538 1536
1520 1523 1524 1527 1531 1532 1534 1536 1539 1541 1541 1543 1544 1545 1546 1545 1546 1546 1546 1546 1546 1544 1540 1540 1539 1538 1539 1538 1537 1535 1534 1532
1517 1519 1520 1522 1525 1528 1529 1532 1534 1537 1539 1540 1541 1541 1542 1543 1543 1542 1542 1543 1541 1541 1539 1537 1537 1536 1536 1535 1534 1532 1530 1529
Wind_Speed
22 30 34 37 24 22 18 14 12 16 18 19 21 22 21 20 17 16 15 14 11 10 9 8 7 8 10 10 10 13 14 14
30 31 40 28 22 24 14 10 16 18 18 19 20 19 19 17 15 14 14 12 9 6 5 3 3 7 8 8 9 14 16 14
13 6 11 35 30 16 14 15 18 19 20 19 19 18 17 16 14 12 11 8 6 4 1 3 3 5 8 10 11 14 13 13
26 39 40 31 24 18 16 18 19 20 21 20 17 16 15 14 12 9 8 8 5 1 1 3 5 5 6 9 14 13 12 13
29 26 23 23 21 20 21 23 22 21 19 18 14 13 12 11 8 7 6 4 2 1 2 3 3 5 10 12 14 15 14 12
29 20 21 21 20 20 22 23 21 19 17 13 11 10 9 8 8 6 6 4 3 3 4 5 7 9 11 12 12 14 16 11
27 21 21 21 23 24 26 23 18 16 14 11 8 7 6 7 9 8 7 7 5 6 8 8 9 10 10 8 12 17 13 12
25 23 22 24 23 22 22 21 17 16 13 10 10 10 8 9 8 7 6 5 7 7 7 8 10 11 12 14 17 16 12 12
25 24 25 25 24 23 22 21 19 16 12 13 13 11 9 9 8 7 6 6 7 9 11 12 12 13 14 15 12 11 14 16
26 27 26 25 23 24 23 21 18 16 10 14 14 12 11 11 8 5 6 7 10 11 11 12 12 14 14 11 10 13 15 11
29 27 25 23 22 21 19 22 20 17 15 14 13 13 11 8 5 4 7 8 11 12 13 14 15 13 12 12 12 13 12 16
29 28 25 25 27 23 23 19 18 16 14 15 14 12 10 7 5 5 8 12 15 16 16 16 14 14 13 13 13 14 16 17
28 29 28 30 31 29 25 18 16 17 18 15 15 14 10 5 5 8 12 15 18 19 18 17 17 17 15 11 13 15 13 11
32 31 31 32 30 28 24 17 18 19 18 17 15 13 10 8 7 9 13 18 21 21 20 20 20 17 14 13 6 10 14 18
36 38 35 34 32 29 22 18 21 22 21 20 17 15 13 9 10 12 16 19 19 19 19 18 16 16 13 8 6 5 10 16
33 36 38 37 34 32 27 25 26 26 23 22 19 15 13 12 13 15 17 18 17 18 17 14 12 10 11 10 11 13 12 10
36 37 38 36 34 32 30 30 28 26 25 23 20 19 17 15 15 16 15 13 14 15 13 11 9 10 12 14 15 13 13 16
40 39 37 35 35 35 36 35 30 30 28 26 24 21 18 16 14 13 11 12 19 16 12 12 13 15 13 12 13 12 12 13
42 39 38 36 39 39 36 36 33 33 31 30 26 21 17 16 13 10 15 24 16 12 11 13 15 14 14 13 13 15 14 15
43 41 37 36 37 39 39 37 39 36 33 28 24 21 17 12 9 15 21 13 11 12 13 13 12 14 15 15 16 18 15 17
Wind_Direction
147 166 161 130 132 136 117 99 127 144 140 139 140 137 132 124 118 112 106 104 95 84 75 76 51 23 22 24 28 10 12 9
108 103 114 117 115 109 109 155 152 150 143 138 138 132 125 124 124 117 115 114 117 107 100 72 8 346 356 13 5 358 359 1
137 157 143 137 127 121 158 158 154 148 143 140 134 139 140 142 138 135 136 139 144 133 72 331 324 334 348 358 354 351 350 350
128 122 126 143 157 158 157 159 153 148 140 137 136 136 140 141 151 153 154 173 165 163 288 293 312 328 332 333 335 343 341 341
137 140 142 151 162 166 164 158 150 148 148 150 152 149 148 156 163 162 178 164 205 245 262 241 290 310 311 326 331 330 334 339
161 150 159 169 166 166 163 157 158 157 154 152 156 157 166 170 183 188 188 190 218 221 264 284 289 302 310 317 319 324 321 329
165 176 173 173 171 166 163 162 166 169 159 158 168 181 197 201 193 190 218 242 257 270 282 293 306 311 314 306 312 322 307 306
170 175 174 173 167 170 171 173 168 170 170 169 196 211 221 205 209 210 221 231 267 286 297 309 306 314 317 321 323 319 312 309
170 170 168 171 174 174 180 182 180 182 184 197 204 217 208 214 212 210 220 260 292 306 312 311 312 313 315 315 315 316 308 310
176 174 174 176 183 186 187 186 188 187 211 217 209 212 207 202 197 210 260 296 301 299 306 304 306 312 322 336 322 322 319 319
181 185 187 191 200 193 186 191 195 210 220 214 206 196 192 197 208 258 289 301 316 314 312 310 315 324 334 332 323 319 313 315
190 190 194 196 199 195 200 199 213 221 206 193 193 192 201 214 240 287 323 328 321 318 314 312 317 322 325 320 317 315 308 302
197 198 198 198 199 203 206 216 218 205 195 195 197 203 209 226 285 324 325 321 318 313 311 313 314 315 316 316 308 304 288 286
204 202 201 204 212 216 219 233 217 205 200 200 204 212 221 239 281 302 310 313 311 310 311 313 312 313 316 316 296 284 264 283
206 205 207 212 217 218 219 222 205 201 205 212 213 217 225 246 275 291 302 307 310 308 309 309 307 308 308 303 302 273 284 288
206 207 209 212 216 220 226 227 217 216 220 219 224 228 235 259 276 289 298 302 306 308 303 301 300 305 307 298 291 286 298 290
210 210 212 214 218 223 229 224 230 226 223 224 226 230 239 261 278 288 299 310 314 308 308 312 307 305 301 296 296 295 295 292
211 213 216 217 219 224 230 235 228 223 226 226 229 233 243 259 275 290 303 320 309 297 299 303 305 311 315 313 310 303 302 287
215 217 220 219 222 225 230 237 239 234 236 234 230 236 244 257 273 293 313 307 291 289 293 303 310 314 314 318 322 311 301 282
220 221 228 223 223 226 230 237 238 235 234 232 233 233 243 257 267 305 317 293 294 292 293 296 302 310 313 314 317 313 305 291